SBRFSBJP

Guest
Details From SBRF - Guararapes-Gilberto Freyre
To SBJP - Castro Pinto
Flight Number -
Tags generated
Created
Modified
Stats Distance 60 nm / 111 km
Max Altitude 200 ft / 61 m
Waypoints 3
Social Downloads 0
Likes 0
Share VATSIM

Download

Looking for another format? Having issues loading an existing format? Contact us
Advertisement - Login to hide

Notes

Basic altitude profile: - Ascent Rate: 2500ft/min - Ascent Speed: 250kts - Cruise Altitude: 35000ft - Cruise Speed: 420kts - Descent Rate: 1500ft/min - Descent Speed: 250kts Options: - Use NATs: yes - Use PACOTS: yes - Use low airways: yes - Use high airways: yes

Route

SBRF REC SBJP

ID Type Via Altitude (ft/m) Position (lat/lon) Dist (leg/tot) Name
O SBRF APT - 0 / 0 -8.12679 / -34.92300 - / 0 nm Guararapes-Gilberto Freyre
REC VOR - 200 / 61 -8.13659 / -34.92730 0 / 0 nm RECIFE
O SBJP APT - 0 / 0 -7.14852 / -34.95070 59 / 59 nm Castro Pinto

Altitude Profile

Advertisement - Login to hide

SBRF

Details ICAO SBRF (REC)
Name Guararapes-Gilberto Freyre
Region Brazil
Timezone America/Recife (UTC-3.0)
Stats Elevation 33 ft / 10 m (AMSL)
Location -8.126790° -34.923000°
Runways 1
Magnetic Variation 22.057° W

METAR

SBRF 110000Z 13011KT 9999 SCT021 27/22 Q1017

Decode

TAF

TAF SBRF 102200Z 1100/1124 12008KT 8000 SCT022 TN25/1107Z TX30/1114Z BECMG 1112/1114 12013KT RMK PEA

Decode

Departure Runways

ID Width Length Bearing (true/mag) Surface Threshold Overrun Markings Lighting
18 148 ft / 45 m 9,875 ft / 3,010 m 161.88° / 183.94° ASPHALT 0 ft / 0 m 991 ft / 302 m PREC-APP CENTERLINE EDGE THRESHOLD ALSF-II
36 148 ft / 45 m 9,875 ft / 3,010 m 341.88° / 3.93° ASPHALT 0 ft / 0 m 528 ft / 161 m PREC-APP CENTERLINE EDGE THRESHOLD ALSF-II REIL-OMNI

SBJP

Details ICAO SBJP (JPA)
Name Castro Pinto
Region Brazil
Timezone America/Fortaleza (UTC-3.0)
Stats Elevation 216 ft / 66 m (AMSL)
Location -7.148520° -34.950700°
Runways 1
Magnetic Variation 21.731° W

METAR

SBJP 110000Z 13007KT 9999 FEW021 BKN070 26/24 Q1017

Decode

TAF

TAF SBJP 102200Z 1100/1124 12006KT 8000 SCT018 TN24/1108Z TX31/1115Z TEMPO 1106/1109 4000 RA BKN010 BECMG 1111/1113 11015KT BKN018 BECMG 1116/1118 SCT030 BECMG 1121/1122 12010KT RMK PEA

Decode

Destination Runways

ID Width Length Bearing (true/mag) Surface Threshold Overrun Markings Lighting
16 148 ft / 45 m 8,259 ft / 2,517 m 135.50° / 157.23° ASPHALT 0 ft / 0 m 0 ft / 0 m PREC-APP CENTERLINE EDGE THRESHOLD
34 148 ft / 45 m 8,259 ft / 2,517 m 315.50° / 337.23° ASPHALT 0 ft / 0 m 0 ft / 0 m PREC-APP CENTERLINE EDGE THRESHOLD

Popular Alternatives